Weather History for EGNC - July, 2013

Change the Weather History Date:

Tuesday, July 9, 2013

  Actual Average Record
Temperature  
Mean Temperature 72 °F -  
Max Temperature 78 °F 65 °F 78 °F (2005)
Min Temperature 66 °F 57 °F 53 °F (2004)
Cooling Degree Days 7    
Growing Degree Days 22 (Base 50)    
Moisture  
Dew Point 63 °F    
Average Humidity 67    
Maximum Humidity 78    
Minimum Humidity 61    
Precipitation  
Precipitation 0.00 in - - ()
Sea Level Pressure  
Sea Level Pressure 30.38 in    
Wind  
Wind Speed 6 mph ()    
Max Wind Speed 10 mph    
Max Gust Speed -    
Visibility 6.2 miles    
Events      
Averages and records for this station are not official NWS values.
T = Trace of Precipitation, MM = Missing Value Source: Averaged Metar Reports

Daily Weather History Graph

Daily Weather History Graph

Search for Another Location

Airport or City:

Trip Planner

Search our weather history database for the weather conditions in past years. The results will help you decide how hot, cold, wet, or windy it might be!

Date:

Astronomy

Jul. 09, 2013 Rise Set
Actual Time 4:45 AM BST 9:47 PM BST
Civil Twilight 3:50 AM BST 10:41 PM BST
Nautical Twilight 2:05 AM BST 12:23 AM BST
Astronomical Twilight Sun does not set Sun does not set
Moon 6:19 AM BST (7/9) 9:47 PM BST (7/9)
Length of Visible Light 18h 50m
Length of Day
17h 01m
New Moon, 1% of the Moon is Illuminated
Jul 9
New Moon
Jul 16
First Quarter
Jul 22
Full
Jul 29
Last Quarter
Aug 6
New

Hourly Weather History & Observations

Time (BST) Temp. Dew Point Humidity Pressure Visibility Wind Dir Wind Speed Gust Speed Precip Events Conditions
8:50 AM 66.2 °F 59.0 °F 78% 30.45 in - West 3.5 mph - N/A   Clear
9:20 AM 68.0 °F 59.0 °F 73% 30.45 in - West 4.6 mph - N/A   Clear
9:50 AM 69.8 °F 60.8 °F 73% 30.42 in - West 5.8 mph - N/A   Clear
10:20 AM 69.8 °F 60.8 °F 73% 30.42 in - West 5.8 mph - N/A   Clear
10:50 AM 71.6 °F 60.8 °F 69% 30.42 in - West 6.9 mph - N/A   Clear
11:20 AM 73.4 °F 62.6 °F 69% 30.42 in 6.2 mi WNW 6.9 mph - N/A   Partly Cloudy
11:50 AM 73.4 °F 62.6 °F 69% 30.39 in 6.2 mi West 8.1 mph - N/A   Partly Cloudy
12:20 PM 75.2 °F 62.6 °F 65% 30.39 in 6.2 mi WNW 8.1 mph - N/A   Partly Cloudy
12:50 PM 75.2 °F 62.6 °F 65% 30.39 in 6.2 mi West 8.1 mph - N/A   Partly Cloudy
1:20 PM 75.2 °F 64.4 °F 69% 30.36 in 6.2 mi West 9.2 mph - N/A   Partly Cloudy
1:50 PM 77.0 °F 64.4 °F 65% 30.36 in 6.2 mi West 8.1 mph - N/A   Partly Cloudy
2:20 PM 77.0 °F 64.4 °F 65% 30.36 in 6.2 mi West 9.2 mph - N/A   Partly Cloudy
2:50 PM 77.0 °F 64.4 °F 65% 30.36 in 6.2 mi WNW 8.1 mph - N/A   Partly Cloudy
3:20 PM 78.8 °F 64.4 °F 61% 30.36 in 6.2 mi West 10.4 mph - N/A   Partly Cloudy
3:50 PM 78.8 °F 64.4 °F 61% 30.33 in 6.2 mi West 10.4 mph - N/A   Partly Cloudy
4:20 PM 78.8 °F 64.4 °F 61% 30.33 in 6.2 mi West 8.1 mph - N/A   Partly Cloudy
4:50 PM 78.8 °F 64.4 °F 61% 30.33 in 6.2 mi West 9.2 mph - N/A   Partly Cloudy
5:20 PM 78.8 °F 64.4 °F 61% 30.33 in 6.2 mi West 9.2 mph - N/A   Partly Cloudy
5:50 PM 78.8 °F 64.4 °F 61% 30.33 in 6.2 mi West 10.4 mph - N/A   Partly Cloudy